| time (UTC) | temp F | wind direction | speed MPH | gust MPH | rain 1hr in | rain 24hr in | rain mn in | humidity % | barometer mb |
| 20260902094555 | 62 | 0 | 0.0 | 5.0 | 0.00 | 0.93 | 0.00 | 97 | 1018.9 |
| 20260902093049 | 62 | 0 | 0.0 | 6.0 | 0.00 | 0.93 | 0.00 | 97 | 1018.8 |
| 20260902091543 | 62 | 0 | 0.0 | 6.0 | 0.00 | 0.93 | 0.00 | 97 | 1018.7 |
| 20260902090048 | 62 | 0 | 0.0 | 5.0 | 0.00 | 0.93 | 0.00 | 97 | 1018.7 |
| 20260902084550 | 62 | 111 | 0.0 | 6.0 | 0.00 | 0.98 | 0.00 | 97 | 1018.6 |
| 20260902083046 | 62 | 282 | 1.0 | 5.0 | 0.00 | 0.98 | 0.00 | 97 | 1018.5 |
| 20260902081555 | 62 | 0 | 0.0 | 4.0 | 0.00 | 0.98 | 0.00 | 96 | 1018.4 |
| 20260902080048 | 62 | 0 | 1.0 | 5.0 | 0.00 | 0.98 | 0.00 | 96 | 1018.4 |
| 20260902074606 | 62 | 150 | 0.0 | 3.0 | 0.00 | 0.98 | 0.00 | 96 | 1018.4 |
| 20260902073043 | 62 | 28 | 0.0 | 3.0 | 0.00 | 0.98 | 0.00 | 96 | 1018.4 |
| 20260902071550 | 62 | 0 | 0.0 | 4.0 | 0.00 | 0.98 | 0.00 | 96 | 1018.5 |
| 20260902070050 | 62 | 0 | 1.0 | 3.0 | 0.00 | 0.98 | 0.00 | 96 | 1018.6 |
| 20260902064547 | 62 | 48 | 0.0 | 5.0 | 0.00 | 0.98 | 0.00 | 96 | 1018.6 |
| 20260902063100 | 62 | 138 | 0.0 | 6.0 | 0.00 | 0.98 | 0.00 | 96 | 1018.9 |
| 20260902061551 | 63 | 140 | 0.0 | 3.0 | 0.00 | 0.98 | 0.00 | 96 | 1018.9 |
| 20260902060105 | 63 | 311 | 0.0 | 6.0 | 0.00 | 0.98 | 0.00 | 96 | 1018.6 |
| 20260902054602 | 63 | 60 | 0.0 | 4.0 | 0.00 | 0.98 | 0.00 | 96 | 1018.4 |
| 20260902053054 | 63 | 123 | 0.0 | 4.0 | 0.00 | 0.98 | 0.00 | 97 | 1018.5 |
| 20260902051558 | 64 | 0 | 0.0 | 2.0 | 0.00 | 0.98 | 0.00 | 97 | 1018.5 |
| 20260902050048 | 64 | 0 | 0.0 | 3.0 | 0.00 | 0.98 | 0.00 | 97 | 1018.1 |
| 20260902044547 | 64 | 0 | 0.0 | 0.0 | 0.00 | 0.98 | 0.00 | 97 | 1017.9 |
| 20260902043104 | 64 | 0 | 0.0 | 3.0 | 0.00 | 0.98 | 0.00 | 97 | 1017.7 |
| 20260902041603 | 64 | 0 | 0.0 | 5.0 | 0.00 | 0.98 | 0.00 | 98 | 1017.6 |
| 20260902040049 | 65 | 0 | 0.0 | 2.0 | 0.00 | 0.98 | 0.00 | 97 | 1017.3 |
| 20260902034550 | 65 | 0 | 0.0 | 0.0 | 0.00 | 0.98 | 0.98 | 98 | 1017.1 |
| 20260902033049 | 65 | 0 | 0.0 | 0.0 | 0.00 | 0.98 | 0.98 | 97 | 1017.2 |
| 20260902031553 | 66 | 0 | 0.0 | 0.0 | 0.00 | 0.98 | 0.98 | 98 | 1017.2 |
| 20260902030049 | 66 | 0 | 0.0 | 1.0 | 0.00 | 0.98 | 0.98 | 97 | 1017.3 |
| 20260902024549 | 66 | 0 | 0.0 | 2.0 | 0.00 | 0.98 | 0.98 | 97 | 1017.2 |
| 20260902023053 | 66 | 0 | 0.0 | 0.0 | 0.00 | 0.98 | 0.98 | 97 | 1017.6 |
| 20260902021551 | 66 | 0 | 0.0 | 0.0 | 0.00 | 0.98 | 0.98 | 97 | 1017.5 |
| 20260902020047 | 66 | 73 | 0.0 | 2.0 | 0.00 | 0.98 | 0.98 | 96 | 1017.4 |
| 20260902014554 | 67 | 0 | 0.0 | 0.0 | 0.00 | 0.98 | 0.98 | 96 | 1017.3 |
| 20260902013057 | 67 | 0 | 0.0 | 2.0 | 0.00 | 0.98 | 0.98 | 96 | 1017.0 |
| 20260902011552 | 67 | 0 | 0.0 | 2.0 | 0.00 | 0.98 | 0.98 | 97 | 1016.8 |
| 20260902010052 | 67 | 0 | 0.0 | 1.0 | 0.00 | 0.98 | 0.98 | 97 | 1016.6 |
| 20260902004550 | 67 | 0 | 0.0 | 4.0 | 0.00 | 0.98 | 0.98 | 96 | 1016.5 |
| 20260902003128 | 67 | 0 | 0.0 | 2.0 | 0.00 | 0.98 | 0.98 | 96 | 1016.1 |
| 20260902001547 | 67 | 0 | 0.0 | 2.0 | 0.00 | 0.98 | 0.98 | 96 | 1016.3 |
| 20260902000059 | 67 | 0 | 0.0 | 0.0 | 0.00 | 0.98 | 0.98 | 96 | 1016.2 |
| 20260901234546 | 68 | 0 | 0.0 | 0.0 | 0.00 | 0.98 | 0.98 | 95 | 1016.0 |
| 20260901233054 | 68 | 0 | 0.0 | 0.0 | 0.00 | 0.98 | 0.98 | 95 | 1015.9 |
| 20260901231558 | 68 | 0 | 0.0 | 0.0 | 0.00 | 0.98 | 0.98 | 95 | 1015.9 |
| 20260901230048 | 68 | 0 | 0.0 | 0.0 | 0.00 | 0.98 | 0.98 | 94 | 1016.0 |
| 20260901224553 | 69 | 0 | 0.0 | 0.0 | 0.00 | 0.98 | 0.98 | 94 | 1016.0 |
| 20260901223048 | 69 | 0 | 0.0 | 0.0 | 0.00 | 0.98 | 0.98 | 94 | 1016.0 |
| 20260901221548 | 69 | 0 | 0.0 | 1.0 | 0.00 | 0.98 | 0.98 | 93 | 1015.7 |
| 20260901220048 | 69 | 0 | 0.0 | 2.0 | 0.00 | 0.98 | 0.98 | 93 | 1016.0 |
| 20260901214552 | 69 | 0 | 0.0 | 2.0 | 0.00 | 0.98 | 0.98 | 93 | 1016.0 |
| 20260901213046 | 70 | 5 | 0.0 | 4.0 | 0.00 | 0.98 | 0.98 | 93 | 1015.9 |
| 20260901211548 | 69 | 0 | 0.0 | 0.0 | 0.00 | 0.98 | 0.98 | 93 | 1015.8 |
| 20260901204546 | 69 | 0 | 0.0 | 5.0 | 0.00 | 0.98 | 0.98 | 93 | 1015.6 |
| 20260901203052 | 68 | 0 | 1.0 | 3.0 | 0.00 | 0.98 | 0.98 | 95 | 1015.7 |
| 20260901201548 | 68 | 0 | 0.0 | 0.0 | 0.00 | 0.98 | 0.98 | 96 | 1015.8 |
| 20260901200048 | 67 | 0 | 0.0 | 5.0 | 0.00 | 0.98 | 0.98 | 95 | 1015.9 |
| 20260901194546 | 68 | 31 | 0.0 | 3.0 | 0.00 | 0.98 | 0.98 | 95 | 1015.9 |
| 20260901193056 | 68 | 0 | 0.0 | 3.0 | 0.00 | 0.98 | 0.98 | 96 | 1015.9 |
| 20260901191551 | 68 | 0 | 0.0 | 3.0 | 0.00 | 0.98 | 0.98 | 96 | 1015.7 |
| 20260901190113 | 68 | 86 | 0.0 | 6.0 | 0.00 | 0.98 | 0.98 | 96 | 1015.5 |
| 20260901184544 | 68 | 0 | 0.0 | 2.0 | 0.00 | 0.98 | 0.98 | 96 | 1015.4 |
| 20260901183050 | 68 | 0 | 1.0 | 4.0 | 0.00 | 0.98 | 0.98 | 96 | 1015.5 |
| 20260901181552 | 68 | 0 | 0.0 | 2.0 | 0.00 | 0.98 | 0.98 | 97 | 1015.5 |
| 20260901180049 | 68 | 0 | 0.0 | 1.0 | 0.00 | 0.98 | 0.98 | 98 | 1015.5 |
| 20260901174553 | 67 | 0 | 0.0 | 4.0 | 0.00 | 0.98 | 0.98 | 98 | 1015.4 |
| 20260901173052 | 67 | 9 | 1.0 | 5.0 | 0.00 | 0.98 | 0.98 | 98 | 1015.4 |
| 20260901171601 | 67 | 0 | 0.0 | 4.0 | 0.00 | 0.98 | 0.98 | 99 | 1015.3 |
| 20260901170050 | 67 | 0 | 0.0 | 4.0 | 0.00 | 0.98 | 0.98 | 99 | 1015.2 |
| 20260901164552 | 68 | 0 | 0.0 | 3.0 | 0.00 | 0.98 | 0.98 | 99 | 1015.2 |
| 20260901163113 | 67 | 323 | 0.0 | 5.0 | 0.00 | 0.98 | 0.98 | 99 | 1015.4 |
| 20260901161551 | 67 | 39 | 0.0 | 5.0 | 0.00 | 0.98 | 0.98 | 99 | 1015.3 |
| 20260901160048 | 67 | 0 | 0.0 | 4.0 | 0.00 | 0.98 | 0.98 | 99 | 1015.4 |
| 20260901154553 | 67 | 0 | 0.0 | 3.0 | 0.01 | 0.98 | 0.98 | 100 | 1015.4 |
| 20260901153055 | 67 | 0 | 0.0 | 3.0 | 0.10 | 0.98 | 0.98 | 99 | 1015.4 |
| 20260901151547 | 66 | 0 | 0.0 | 4.0 | 0.10 | 0.98 | 0.98 | 100 | 1014.9 |
| 20260901150049 | 66 | 0 | 0.0 | 3.0 | 0.10 | 0.98 | 0.98 | 99 | 1014.7 |
| 20260901144548 | 65 | 144 | 0.0 | 4.0 | 0.09 | 0.97 | 0.97 | 99 | 1014.8 |
| 20260901143053 | 66 | 0 | 0.0 | 0.0 | 0.00 | 0.88 | 0.88 | 99 | 1015.9 |
| 20260901141548 | 66 | 0 | 0.0 | 2.0 | 0.01 | 0.88 | 0.88 | 99 | 1015.4 |
| 20260901140056 | 66 | 58 | 0.0 | 2.0 | 0.02 | 0.88 | 0.88 | 99 | 1015.5 |
| 20260901134549 | 65 | 0 | 0.0 | 0.0 | 0.03 | 0.88 | 0.88 | 99 | 1015.3 |
| 20260901133101 | 65 | 0 | 0.0 | 3.0 | 0.03 | 0.88 | 0.88 | 99 | 1015.3 |
| 20260901131551 | 65 | 113 | 0.0 | 3.0 | 0.03 | 0.87 | 0.87 | 99 | 1015.5 |
| 20260901130046 | 65 | 0 | 0.0 | 0.0 | 0.02 | 0.86 | 0.86 | 99 | 1015.6 |
| 20260901124550 | 65 | 0 | 0.0 | 4.0 | 0.02 | 0.85 | 0.85 | 99 | 1015.9 |
| 20260901123048 | 65 | 0 | 0.0 | 1.0 | 0.02 | 0.85 | 0.85 | 99 | 1015.7 |
| 20260901121552 | 65 | 0 | 0.0 | 0.0 | 0.01 | 0.84 | 0.84 | 99 | 1016.1 |
| 20260901120045 | 65 | 0 | 0.0 | 1.0 | 0.03 | 0.83 | 0.83 | 99 | 1016.2 |
| 20260901114549 | 65 | 0 | 0.0 | 4.0 | 0.08 | 0.83 | 0.83 | 99 | 1015.9 |
| 20260901113053 | 65 | 347 | 0.0 | 4.0 | 0.11 | 0.83 | 0.83 | 99 | 1015.8 |
| 20260901111551 | 65 | 0 | 0.0 | 0.0 | 0.17 | 0.83 | 0.83 | 99 | 1015.8 |
| 20260901110050 | 65 | 0 | 0.0 | 0.0 | 0.19 | 0.79 | 0.79 | 99 | 1016.0 |
| 20260901104550 | 65 | 0 | 0.0 | 3.0 | 0.35 | 0.74 | 0.74 | 99 | 1016.0 |
| 20260901103057 | 65 | 0 | 0.0 | 0.0 | 0.61 | 0.72 | 0.72 | 98 | 1015.7 |
| 20260901101552 | 65 | 0 | 0.0 | 3.0 | 0.58 | 0.66 | 0.66 | 98 | 1015.6 |
| 20260901100054 | 65 | 346 | 0.0 | 3.0 | 0.54 | 0.58 | 0.58 | 98 | 1015.7 |